Andover, NJ

10:23 PM EDT on May 23, 2017 (GMT -0400)
Andover

Weather History for K12N - March, 2014

Change the Weather History Date:

Tuesday, March 4, 2014

  Actual Average (KFWN) Record (KFWN)
Temperature  
Mean Temperature 16 °F -  
Max Temperature 27 °F 40 °F 70 °F (1991)
Min Temperature 5 °F 22 °F 1 °F (2014)
Degree Days  
Heating Degree Days 49    
Moisture  
Dew Point 1 °F    
Average Humidity 50    
Maximum Humidity 70    
Minimum Humidity 32    
Precipitation  
Precipitation 0.00 in - - ()
Sea Level Pressure  
Sea Level Pressure 30.35 in    
Wind  
Wind Speed 3 mph (West)    
Max Wind Speed 5 mph    
Max Gust Speed -    
Averages and records for this station are not official NWS values.
T = Trace of Precipitation, MM = Missing Value Source: NWS Daily Summary

Daily Weather History Graph

Daily Weather History Graph

Search for Another Location

Airport or City:

Trip Planner

Search our weather history database for the weather conditions in past years. The results will help you decide how hot, cold, wet, or windy it might be!

Date:

Astronomy

Mar. 04, 2014 Rise Set
Actual Time 6:28 AM EST 5:53 PM EST
Civil Twilight 6:01 AM EST 6:20 PM EST
Nautical Twilight 5:29 AM EST 6:52 PM EST
Astronomical Twilight 4:57 AM EST 7:24 PM EST
Moon 8:11 AM EST (3/4) 10:00 PM EST (3/4)
Length of Visible Light 12h 19m
Length of Day
11h 24m
Waxing Crescent, 14% of the Moon is Illuminated
Mar 4
Waxing Crescent
Mar 8
First Quarter
Mar 16
Full
Mar 23
Last Quarter
Mar 30
New

Hourly Weather History & Observations

Time (EST) Temp. Windchill Dew Point Humidity Pressure Visibility Wind Dir Wind Speed Gust Speed Precip Events Conditions
12:54 AM 9.0 °F 0.6 °F -5.1 °F 53% 30.38 in - North 4.6 mph - N/A   Unknown
1:54 AM 8.1 °F 1.4 °F -5.1 °F 55% 30.39 in - NNW 3.5 mph - N/A   Unknown
2:54 AM 6.1 °F - -2.9 °F 67% 30.39 in - Calm Calm - N/A   Unknown
3:54 AM 6.1 °F -0.9 °F -4.0 °F 63% 30.38 in - Variable 3.5 mph - N/A   Unknown
4:54 AM 6.1 °F - -4.0 °F 63% 30.40 in - Calm Calm - N/A   Unknown
5:54 AM 5.0 °F -2.1 °F -2.9 °F 70% 30.40 in - Variable 3.5 mph - N/A   Unknown
6:54 AM 6.1 °F - -2.0 °F 69% 30.40 in - Calm Calm - N/A   Unknown
7:54 AM 8.1 °F 1.4 °F -2.0 °F 64% 30.44 in - NE 3.5 mph - N/A   Unknown
8:54 AM 10.0 °F 3.6 °F -2.0 °F 58% 30.45 in - Variable 3.5 mph - N/A   Unknown
9:54 AM 12.0 °F - -0.9 °F 56% 30.44 in - Calm Calm - N/A   Unknown
10:54 AM 15.1 °F 9.4 °F -0.9 °F 49% 30.41 in - WSW 3.5 mph - N/A   Unknown
11:54 AM 21.0 °F - 1.0 °F 42% 30.39 in - Calm Calm - N/A   Unknown
12:54 PM 21.9 °F 15.7 °F 1.0 °F 40% 30.35 in - Variable 4.6 mph - N/A   Unknown
1:54 PM 25.0 °F 19.3 °F 1.0 °F 36% 30.33 in - SW 4.6 mph - N/A   Unknown
2:54 PM 26.1 °F 20.5 °F -0.0 °F 32% 30.32 in - SW 4.6 mph - N/A   Unknown
3:54 PM 27.0 °F 23.0 °F 1.0 °F 33% 30.30 in - SW 3.5 mph - N/A   Unknown
4:54 PM 26.1 °F - -0.0 °F 32% 30.29 in - Calm Calm - N/A   Unknown
5:54 PM 26.1 °F 20.5 °F 1.0 °F 34% 30.29 in - WSW 4.6 mph - N/A   Unknown
6:54 PM 25.0 °F 19.3 °F 1.9 °F 37% 30.30 in - Variable 4.6 mph - N/A   Unknown
7:54 PM 24.1 °F - 5.0 °F 44% 30.30 in - Calm Calm - N/A   Unknown
8:54 PM 24.1 °F - 7.0 °F 48% 30.31 in - Calm Calm - N/A   Unknown
9:54 PM 24.1 °F - 8.1 °F 51% 30.30 in - Calm Calm - N/A   Unknown
10:54 PM 23.0 °F - 9.0 °F 55% 30.27 in - Calm Calm - N/A   Unknown
11:54 PM 23.0 °F - 10.9 °F 60% 30.26 in - Calm Calm - N/A   Unknown